SMOS

Last updated on Mon Sep 07 2026 00:02:45 GMT+0000 (Coordinated Universal Time)

1 36036U 09059A 26249.50042183 .00000179 00000+0 70968-4 0 9997 2 36036 98.4438 75.6526 0001400 84.6177 275.5171 14.39761271885151
UTC large
Height (km)
Speed (km/s)
/
Latitude / Longitude
Inclination (degrees)
Orbital Period (minutes)
Azimuth
Elevation
Range (km)
Doppler Factor

Next 0 passes for location: London (51.5072 / 0.1276)

No passes found over London.
SMOS